Cloud_Cover
20 6 100 100 98 13 18 23 99 100 74 0 5 5 0 2 5 36 0 0 0 5 84 5 26 6 5 87 74 4 0 13 5 1 0 0 0 1 4 2 4 5 5 6 21 1 4 0 2
5 4 9 100 41 35 5 73 100 100 94 10 5 5 5 5 9 41 6 0 0 1 88 26 6 5 5 5 57 27 2 52 98 81 5 5 0 0 0 3 5 5 5 5 5 0 0 0 0
11 45 10 6 65 5 6 92 100 100 100 83 5 5 5 5 34 100 45 5 3 4 100 54 2 4 5 5 5 5 3 33 89 53 79 7 11 4 1 2 4 5 5 5 0 0 0 0 0
100 81 56 5 2 90 26 78 100 100 100 72 5 5 7 6 8 73 48 6 0 1 88 18 0 0 0 5 5 2 3 5 3 5 5 55 29 12 5 5 5 5 5 0 0 0 0 5 6
100 90 92 5 1 44 91 100 100 100 100 92 8 5 48 100 80 60 53 48 8 2 41 13 0 4 0 5 6 5 0 38 26 0 4 12 7 57 5 4 0 0 0 1 0 0 0 0 4
98 82 65 5 3 2 83 100 100 96 100 100 30 5 48 100 100 100 81 100 100 62 98 76 15 0 0 0 0 2 13 95 98 43 1 7 13 45 5 4 0 0 0 0 0 0 0 9 5
77 93 5 4 5 16 0 92 100 92 100 100 100 13 25 100 100 100 100 100 100 97 100 47 17 0 12 0 0 0 0 100 11 89 2 2 1 1 53 0 0 0 4 3 2 1 4 4 6
100 94 22 6 60 4 0 1 85 100 100 100 100 94 59 77 100 100 100 100 100 99 100 93 86 74 42 22 4 0 0 24 13 0 0 0 0 0 43 36 21 5 5 5 5 1 3 0 0
99 96 84 10 37 17 38 0 5 27 100 100 100 99 100 100 100 100 100 100 100 100 100 100 80 98 92 100 35 5 2 0 0 0 0 0 0 0 5 82 100 48 4 5 5 5 0 0 0
100 88 5 86 75 100 99 13 5 5 57 100 100 98 100 100 100 100 100 100 100 100 100 90 88 100 77 100 59 74 32 1 0 0 0 0 0 0 0 26 100 100 62 3 3 0 0 0 0
100 68 14 96 100 100 100 95 0 5 1 77 100 100 100 100 100 100 97 100 100 100 100 99 89 100 89 86 100 100 63 20 4 0 0 0 0 0 4 5 100 100 20 63 18 17 8 0 3
100 8 100 100 77 61 100 100 14 5 5 2 89 100 99 86 100 100 100 100 100 100 100 100 100 95 79 92 88 91 51 31 5 5 5 3 1 0 0 0 6 73 97 100 70 31 27 3 0
100 100 97 100 100 61 100 100 100 1 5 4 5 99 100 96 87 100 100 100 100 100 100 100 98 90 72 100 100 86 55 10 6 19 41 5 5 5 5 2 4 4 8 1 2 0 2 4 0
100 100 100 100 100 98 100 100 98 4 3 5 5 9 100 100 100 100 100 100 100 100 100 100 100 99 56 65 86 85 54 74 53 18 37 22 42 5 5 6 5 5 4 3 4 5 4 5 5
100 84 100 100 100 96 100 100 9 5 0 5 5 5 17 100 100 100 100 100 100 100 100 100 83 100 54 100 97 75 74 58 54 70 49 33 65 81 64 73 83 38 5 54 49 64 38 8 6
100 100 100 94 99 100 100 100 98 68 5 1 5 6 5 12 100 100 100 100 100 100 100 100 100 100 100 100 100 80 71 27 21 59 47 49 54 77 99 100 92 52 16 69 81 81 86 81 47
100 20 83 96 100 81 100 100 100 68 17 3 0 74 28 16 50 100 100 100 100 100 100 100 100 100 100 100 100 100 100 100 68 36 80 22 64 60 73 78 98 100 100 96 80 44 28 96 100
88 87 95 100 100 94 99 100 100 100 86 5 0 0 47 63 5 98 100 100 100 100 99 100 100 100 100 100 100 100 100 100 100 100 88 66 85 99 93 41 87 96 87 65 92 81 100 100 100
100 100 98 100 100 100 100 100 100 100 40 6 0 0 0 12 48 21 100 100 100 100 100 88 100 100 100 100 100 100 100 100 100 100 100 100 100 95 39 71 97 100 66 72 100 100 100 100 100
69 99 97 100 100 100 100 100 100 95 5 5 0 0 0 29 25 5 68 100 100 100 100 96 47 79 100 100 100 100 100 100 100 100 100 100 100 100 100 100 100 100 100 100 100 100 100 100 100
86 92 100 74 100 100 100 100 96 52 21 5 0 0 0 0 100 96 89 62 100 100 100 54 86 100 100 100 100 100 100 100 100 100 100 100 100 100 100 100 100 100 100 100 100 100 100 100 100
100 100 100 89 100 100 100 100 73 53 77 5 0 0 0 0 54 100 71 64 100 100 100 100 98 100 100 100 100 100 100 100 100 100 100 100 100 100 100 100 100 100 100 100 100 100 100 100 100
100 98 100 100 100 100 100 100 100 96 5 5 0 0 0 0 0 10 100 100 95 32 95 94 100 100 100 100 100 100 100 100 100 100 100 100 100 100 100 100 100 100 100 100 100 100 100 100 100
100 99 100 100 100 99 100 93 29 93 100 21 0 0 0 0 0 2 56 95 92 70 100 100 100 100 100 100 100 100 100 100 100 100 100 100 100 100 100 100 100 100 100 100 100 100 100 100 100
100 100 100 100 97 51 100 78 5 87 100 100 4 0 0 0 0 0 3 72 75 100 100 100 100 100 100 100 100 100 100 100 100 100 100 100 100 100 100 100 100 100 100 100 100 100 100 100 100
100 98 100 80 56 92 100 8 98 100 100 99 3 0 0 0 0 1 6 6 100 100 77 100 100 100 100 100 100 100 100 100 100 100 100 100 100 100 100 100 100 100 100 100 100 100 100 100 100
100 100 99 100 75 100 100 100 100 100 100 24 3 0 0 0 0 5 3 100 100 98 100 100 100 100 100 100 100 100 100 100 100 100 100 90 97 100 100 100 100 100 100 100 100 100 100 100 100
100 98 82 98 97 100 100 100 100 99 99 9 0 0 0 0 3 5 0 99 100 76 100 99 100 100 100 100 100 100 100 100 100 100 100 100 100 100 100 100 100 100 100 100 100 100 100 100 100
100 100 88 100 100 100 84 94 100 100 71 18 2 0 0 0 0 0 0 0 98 100 100 100 100 100 93 100 100 82 100 100 100 100 100 100 100 100 100 100 100 100 100 100 100 100 100 100 100
97 90 58 100 100 100 100 100 100 100 71 5 0 0 0 0 0 0 0 0 0 16 4 100 100 100 100 79 96 100 40 61 100 100 100 100 100 100 100 100 100 100 100 100 100 100 100 100 100